Regional Weather Roundup
Issued by NWS Sterling, VA

Home | Current Version | Previous Version | Text Only | Print | Product List | Glossary Off
Versions: 1 2 3 4 5 6 7 8 9 10 11 12 13 14 15 16 17 18 19 20 21 22 23 24 25 26 27 28 29 30 31 32 33 34 35 36 37 38 39 40 41 42 43 44 45 46 47 48 49 50

000
ASUS41 KLWX 100910
RWRLWX

REGIONAL WEATHER ROUNDUP
NATIONAL WEATHER SERVICE BALTIMORE MD/WASHINGTON DC
500 AM EDT THU JUL 10 2014

Note: "FAIR" indicates few or no clouds below 12,000 feet
with no significant weather and/or obstructions to visibility.
 TC=TEMPERATURE CELSIUS

 * =Non NWS site. Station does not report precipitation (e.g. rain,
    snow, etc.), thunder, or fog.

DCZ001-MDZ009-015-VAZ040>042-051-053>054-101000-
WASHINGTON METRO
  /KDAA//-FT BELVOIR

CITY           SKY/WX    TMP DP  RH WIND       PRES   REMARKS
WASHINGTON NAT MOCLDY    73  68  84 SW5       30.00R
DULLES         MOCLDY    67  67 100 S3        30.00R
ANDREWS AFB    MOCLDY    70  70 100 SW6       30.00R
QUANTICO       CLOUDY    73  69  87 VRB3      30.00S
COLLEGE PARK*  MOCLDY    70  70 100 CALM      29.99R
LEESBURG*      MOCLDY    70  70 100 N3        30.01R
MANASSAS*      CLOUDY    70  70 100 CALM      30.00R VSB 1/2
GAITHERSBURG*  PTCLDY    66  64  94 CALM      30.04R

$$

MDZ006>007-011-014-101000-
BALTIMORE METRO

CITY           SKY/WX    TMP DP  RH WIND       PRES   REMARKS
BWI AIRPORT    MOCLDY    69  67  93 CALM      29.99R
MD SCIENCE CTR   N/A     74  67  78 MISG      29.99R
MARTIN STATE   CLOUDY    70  70 100 CALM      29.99S
ANNAPOLIS      CLOUDY    71  68  90 CALM      29.98R
FORT MEADE*    MOCLDY    64  63  94 CALM      30.01R

$$

MDZ012-015-019>023-101000-
MARYLAND EASTERN SHORE

CITY           SKY/WX    TMP DP  RH WIND       PRES   REMARKS
OCEAN CITY     CLOUDY    73  71  93 W6        30.00R
SALISBURY      CLOUDY    75  71  87 S3        30.00S
BAY BRIDGE AP*   N/A     72  72 100 SW3       29.99R
CAMBRIDGE*     MOCLDY    77  72  83 SW3       29.99S
EASTON*        CLOUDY    76  76 100 SW5       30.03R

$$

MDZ017>025-101000-
SOUTHERN MARYLAND

CITY           SKY/WX    TMP DP  RH WIND       PRES   REMARKS
PATUXENT RIVER CLOUDY    74  69  85 SW5       29.99S
ST INIGOES     CLOUDY    75  69  81 S5        29.98F
LEONARDTOWN*   CLOUDY    72  68  88 SW3       30.01S

$$

MDZ003>005-101000-
NORTH CENTRAL MARYLAND

CITY           SKY/WX    TMP DP  RH WIND       PRES   REMARKS
FREDERICK*     PTCLDY    64  64 100 CALM      30.03S FOG
HAGERSTOWN APT CLEAR     65  63  93 NW5       30.02R
WESTMINSTER*   PTCLDY    66  64  94 CALM      30.02S FOG

$$

MDZ501>502-101000-
WESTERN MARYLAND

CITY           SKY/WX    TMP DP  RH WIND       PRES   REMARKS
OAKLAND*       CLEAR     59  59 100 S3        30.12R
CUMBERLAND*    CLEAR     63  59  88 N3        30.08R

$$

VAZ025>031-101000-
SHENANDOAH VALLEY

CITY           SKY/WX    TMP DP  RH WIND       PRES   REMARKS
WINCHESTER*    PTCLDY    63  63 100 CALM      30.02R FOG
STAUNTON*      CLOUDY    64  62  93 CALM      30.07R FOG

$$

WVZ021-048>050-054>055-101000-
EASTERN WEST VIRGINIA PANHANDLE

CITY           SKY/WX    TMP DP  RH WIND       PRES   REMARKS
MARTINSBURG    PTCLDY    66  62  87 N6        30.02S
PETERSBURG*    PTCLDY    60  56  88 CALM      30.06R FOG

$$

VAZ036>039-050-101000-
CENTRAL FOOTHILLS

CITY           SKY/WX    TMP DP  RH WIND       PRES   REMARKS
CHARLOTTESVILL CLOUDY    68  67  96 S7        30.01S
ORANGE*        CLOUDY    68  66  94 S3        30.03R

$$

VAZ055>057-101000-
NORTH AND CENTRAL PIEDMONT

CITY           SKY/WX    TMP DP  RH WIND       PRES   REMARKS
FREDERICKSBRG* CLOUDY    73  70  91 CALM      29.99S
STAFFORD*      CLOUDY    69  69 100 CALM      30.04S

$$

NCZ024-NYZ072-PAZ021-071-VAZ022-071-101000-
OTHER REGIONAL OBSERVATIONS

CITY           SKY/WX    TMP DP  RH WIND       PRES   REMARKS
NEW YORK CITY  MOCLDY    72  60  66 VRB3      30.03R
PHILADELPHIA   MOCLDY    75  68  78 SE3       30.00R
PITTSBURGH     PTCLDY    63  61  93 CALM      30.05S
ROANOKE        CLOUDY    69  66  90 NE3       30.05F
RICHMOND       CLOUDY    73  69  87 S3        30.00S
RALEIGH        CLOUDY    74  67  78 SW3       30.01S

$$

ANZ530>537-101000-
MARINE OBSERVATIONS

STATION/POSITION TIME  TEMP    WIND        PRES
                       AIR SEA DIR/SP/G
                 (UTC) (F)     (DEG/KT/KT) (MB)
THOMAS PT LIGHT  0900   73 78  220/  9/ 10 1016.1R
BALT KEY BRIDGE  0900   74     230/  3/  3 1014.8R
COVE POINT       0900   74     230/ 11/ 12 1015.3S
LEWISETTA        0900   75 80  200/  7/  8 1015.3S
SOLOMONS ISLAND  0900      80                N/A
PINEY POINT      0900          240/  2/  2   N/A

$$




USA.gov is the U.S. government's official web portal to all federal, state and local government web resources and services.